This is the latest recevied weather packets stored in our database for station/object W7TRD. If no packets are shown the sender has not sent any weather packets the latest 10 day(s).
| Time | Temp. | Humidity | Pressure | Rain* | Wind** | Luminosity | Snow |
|---|---|---|---|---|---|---|---|
| 1777825823 | 21.11° C | 63% | 1013.2 hPa | 0 mm | - | 445 W/m² | - |
| 1777825520 | 21.11° C | 64% | 1013.1 hPa | 0 mm | - | 431 W/m² | - |
| 1777825218 | 21.11° C | 64% | 1013.2 hPa | 0 mm | - | 418 W/m² | - |
| 1777824914 | 20.56° C | 67% | 1013.3 hPa | 0 mm | - | 403 W/m² | - |
| 1777824610 | 20.56° C | 66% | 1013.4 hPa | 0 mm | - | 388 W/m² | - |
| 1777824308 | 20° C | 68% | 1013.4 hPa | 0 mm | - | 373 W/m² | - |
| 1777824003 | 18.89° C | 71% | 1013.3 hPa | 0 mm | - | 359 W/m² | - |
| 1777823700 | 18.89° C | 71% | 1013.3 hPa | 0 mm | - | 333 W/m² | - |
| 1777823396 | 18.89° C | 71% | 1013.4 hPa | 0 mm | - | 92 W/m² | - |
| 1777823095 | 18.89° C | 71% | 1013.2 hPa | 0 mm | - | 67 W/m² | - |
| 1777822792 | 18.33° C | 72% | 1013.3 hPa | 0 mm | - | 65 W/m² | - |
| 1777822490 | 18.33° C | 73% | 1013.4 hPa | 0 mm | - | 64 W/m² | - |
| 1777822187 | 17.78° C | 73% | 1013.2 hPa | 0 mm | - | 63 W/m² | - |
| 1777821884 | 17.22° C | 78% | 1013.3 hPa | 0 mm | - | 64 W/m² | - |
| 1777821581 | 17.78° C | 77% | 1013.1 hPa | 0 mm | - | 71 W/m² | - |
| 1777821279 | 17.78° C | 76% | 1013.3 hPa | 0 mm | - | 180 W/m² | - |
| 1777820977 | 18.33° C | 75% | 1013.5 hPa | 0 mm | - | 209 W/m² | - |
| 1777820673 | 17.78° C | 77% | 1013.3 hPa | 0 mm | - | 199 W/m² | - |
| 1777820369 | 17.78° C | 76% | 1013.3 hPa | 0 mm | - | 169 W/m² | - |
| 1777820067 | 18.33° C | 76% | 1013.4 hPa | 0 mm | - | 135 W/m² | - |
| 1777819763 | 18.33° C | 77% | 1013.4 hPa | 0 mm | - | 115 W/m² | - |
| 1777819462 | 17.78° C | 77% | 1013.4 hPa | 0 mm | - | 98 W/m² | - |
| 1777819159 | 17.78° C | 77% | 1013.2 hPa | 0 mm | - | 89 W/m² | - |
| 1777818856 | 17.78° C | 77% | 1013.3 hPa | 0 mm | - | 81 W/m² | - |
| 1777818551 | 17.78° C | 76% | 1013.4 hPa | 0 mm | - | 75 W/m² | - |
* Rain latest hour (hover to see other rain measurements)
** Current wind speed in m/s (hover to see current wind gust speed)